Tracking 29892 objects as of 21-Nov-2024
HD Live streaming from Space Station
objects crossing your sky now

STARLINK-30819

Track STARLINK-30819 now!
10-day predictions
STARLINK-30819 is classified as:


NORAD ID: 58179
Int'l Code: 2023-167E
Perigee: 565.6 km
Apogee: 566.9 km
Inclination: 43.0 °
Period: 95.8 minutes
Semi major axis: 6937 km
RCS: Unknown
Launch date: October 30, 2023
Source: United States (US)
Launch site: AIR FORCE EASTERN TEST RANGE (AFETR)
Your satellite tracking list
Your tracking list is empty




NASA's NSSDC Master Catalog

Two Line Element Set (TLE):
1 58179U 23167E   24324.99317089  .00003697  00000-0  28865-3 0  9997
2 58179  43.0044 205.7283 0000981 272.2920  87.7810 15.02525138 59542
Source of the keplerian elements: AFSPC